www.pogodaiklimat.ru
ПОГОДА в Сан-Хуане
Время
и дата
01:03 14.07
01:08 14.07
01:56 14.07
02:56 14.07
03:56 14.07
04:56 14.07
05:56 14.07
06:03 14.07
06:07 14.07
06:56 14.07
07:56 14.07
08:56 14.07
09:56 14.07
10:56 14.07
11:56 14.07
12:56 14.07
13:56 14.07
14:56 14.07
15:56 14.07
16:56 14.07
17:56 14.07
18:56 14.07
19:56 14.07
20:56 14.07
21:56 14.07
22:56 14.07
23:56 14.07
00:56 15.07
01:56 15.07
02:56 15.07
03:56 15.07
04:56 15.07
05:56 15.07
06:56 15.07
07:56 15.07
08:56 15.07
10:56 15.07
11:56 15.07
12:56 15.07
13:56 15.07
14:56 15.07
15:56 15.07
16:56 15.07
17:56 15.07
18:56 15.07
19:56 15.07
20:56 15.07
21:56 15.07
Ветер
(напр.,м/с)
Видим. Явления Облачность Т
(С)
Тd
(С)
f
(%)
Тe
(С)
Тes
(С)
Комфортность P
(гПа)
Po
(гПа)
Тmin
(С)
Tmax
(С)
R
(мм)
R24
(мм)
S
(см)
В 3 16 км 10/10 630 м +28.9 +26.1 85 +44 +44 очень
душно
1017.5
В 3 16 км 2/2 630 м +28.9 +26.1 85 +44 +44 опасность
перегрева
1017.1
штиль 0 16 км 5/5 630 м +28.3 +26.1 88 +43 +43 опасность
перегрева
1017.3 1016.8 +28.3 +30.0
ЮВ 2 16 км 5/5 540 м +28.3 +26.1 88 +43 +43 опасность
перегрева
1016.6 1016.5
штиль 0 16 км 5/5 540 м +28.3 +25.6 85 +42 +42 опасность
перегрева
1016.6 1016.1
ЮВ 2 16 км 5/5 630 м +28.3 +25.6 85 +42 +42 опасность
перегрева
1016.8 1016.5
штиль 0 16 км 5/5 630 м +28.3 +25.6 85 +42 +42 опасность
перегрева
1017.1 1016.8
штиль 0 16 км 10/10 510 м +28.3 +25.6 85 +42 +42 очень
душно
1016.8
штиль 0 14 км 8/2 600 m
[Ac]
+28.3 +25.6 85
штиль 0 14 км 8/5 480 m
[Ac]
+28.9 +26.1 85 1017.5
В 3 14 км 8/5 540 m
[Ac]
+30.0 +26.7 83 1017.5 +28.3 +30.0 0.3 0.5
СВ 5 14 км 5/5 540 м +30.6 +26.7 80 1017.3
В 6
{9}
14 км 8/8 600 м +31.1 +26.7 77 1017.2
В 6
{11}
14 км 5/5 600 м +31.7 +26.7 75 1017.0
В 7 14 км 5/5 900 м +31.7 +25.6 70 1016.5
СВ 6 14 км 5/5 900 м +32.2 +26.7 73 1016.3
В 8 14 км 5/5 960 m
[Ac]
+31.7 +25.6 70 1015.8 +30.0 +32.2
СВ 7
{11}
16 км 5/5 960 м +31.7 +26.1 72 1015.2
СВ 7 16 км 5/5 1050 м +31.7 +25.6 70 +46 +48 опасность
перегрева
1015.2 1014.8
СВ 7 16 км 5/5 750 м +30.6 +25.6 75 +45 +47 опасность
перегрева
1015.2 1014.8
СВ 6 16 км 5/5 750 м +30.0 +26.1 80 +45 +46 опасность
перегрева
1015.5 1015.1
В 5 16 км 5/5 750 м +30.0 +25.6 77 +44 +44 опасность
перегрева
1015.8 1015.4
В 3 16 км слабый дождь 5/5 600 m
[Ns]
+28.3 +26.1 88 +43 +43 опасность
перегрева
1016.2 1015.8 +28.3 +32.2
В 4 16 км 5/5 720 м +28.9 +25.6 82 +43 +43 опасность
перегрева
1016.4 1016.1
В 5 16 км 5/5 720 м +28.9 +25.0 80 +42 +42 опасность
перегрева
1016.7 1016.5
В 3 16 км 5/5 720 м +28.9 +24.4 77 +41 +41 опасность
перегрева
1017.0 1016.8
СВ 4 16 км 10/8 510 m
[Ac]
+27.8 +25.0 85 +40 +40 очень
душно
1016.6 1016.5
В 5 16 км 5/5 780 м +28.3 +23.9 77 +39 +39 очень
душно
1015.9 1015.4
В 4 16 км 2/2 780 м +27.8 +23.9 79 +38 +38 очень
душно
1015.1 1014.8 +27.8 +29.4 0.5
В 2 16 км 2/2 900 м +27.8 +23.3 77 +38 +38 очень
душно
1014.8 1014.4
штиль 0 16 км 2/2 900 м +27.8 +23.9 79 +38 +38 очень
душно
1014.7 1014.4
штиль 0 16 км 2/2 900 м +27.2 +23.9 82 +37 +37 очень
душно
1014.9 1014.4
штиль 0 16 км 2/2 810 м +26.7 +24.4 87 +37 +37 очень
душно
1015.3 1015.1
штиль 0 16 км 2/2 900 м +27.8 +24.4 82 +39 +39 очень
душно
1016.0 1015.8
ЮВ 2 16 км 2/2 900 м +28.9 +23.9 74 +40 +41 очень
душно
1016.2 1015.8 +26.7 +28.9 0.5
В 3 16 км 2/2 900 м +28.9 +23.3 72 +39 +42 очень
душно
1016.5 1016.1
СВ 5 16 км 5/5 930 м +31.1 +23.9 66 +43 +47 опасность
перегрева
1016.4 1016.1
СВ 6
{9}
16 км 2/2 930 м +31.7 +23.9 63 +43 +49 опасность
перегрева
1016.2 1015.8
СВ 5
{8}
16 км 2/2 990 м +31.1 +23.9 66 +43 +52 опасность
перегрева
1015.9 1015.8
В 7
{10}
16 км 2/2 1050 м +31.7 +23.3 61 +42 +47 опасность
перегрева
1015.2 1014.8 +28.9 +32.2
СВ 5 16 км 5/5 1110 m
[Ac]
+31.1 +23.9 66 +43 +48 опасность
перегрева
1014.7 1014.4
В 6 16 км 5/5 1050 m
[Ac]
+31.1 +23.3 63 +42 +44 опасность
перегрева
1014.2 1014.1
СВ 6 16 км 8/5 750 m
[Ac]
+30.6 +24.4 70 +43 +44 опасность
перегрева
1014.3 1014.1
В 6
{10}
16 км 8/5 900 m
[Ac]
+30.0 +23.3 67 +40 +41 очень
душно
1014.7 1014.4
В 6 16 км 8/5 1050 m
[Ac]
+29.4 +23.3 70 +40 +40 очень
душно
1015.1 1014.8
В 4 16 км 5/2 1200 m
[Ac]
+28.3 +23.3 74 +38 +38 очень
душно
1015.5 1015.1 +28.3 +31.7
В 3 16 км 5/5 900 м +28.9 +23.3 72 +39 +39 очень
душно
1015.8 1015.4
ЮВ 2 16 км 5/5 1800 м +28.9 +23.3 72 +39 +39 очень
душно
1016.1 1015.8
Местоположение метеостанции Luis Munoz Marin International Airport: широта 18.4500 долгота -66.0000 высота над уровнем моря 3 м.
В архиве по умолчанию представлена погода в Сан-Хуане за последние 1-2 суток. Обновление информации о фактической погоде в базе происходит ежечасно! Архивные данные за месяц целиком и за предыдущие месяцы Вы можете получить, выбрав интересующий диапазон дат из раскрывающегося списка и нажав кнопку "Ввод!".
Внимание! Архив погоды МЕТАР в базе сайта по станциям, не включенным в климатический монитор, хранится не более 60 дней. Нет смысла пытаться выбрать более раннюю дату.
*Определитесь, кто Вы:
Внимание! Время в таблицах - местное (без учета летнего времени). Для получения всемирного времени необходимо вычесть поправку, которая равна -4 ч.
Смотрите также архив погоды в соседних городах и на ближайших метеорологических станциях:
Партнеры нашего сайта:      
Пояснения к столбцам:
  • Ветер - указаны скорость ветра в м/с - средняя за 10 мин, порывы в срок и между сроками (в фигурных скобках) и направление, откуда дует ветер: С - северный,
  • СВ - северо-восточный, В - восточный, ЮВ - юго-восточный, Ю - южный, ЮЗ - юго-западный, З - западный, СЗ - северо-западный.
  • Видимость - горизонтальная дальность видимости в метрах или километрах. При видимости от 1 до 10 км при отсутствии осадков обычно наблюдается дымка, при ухудшении видимости до 1 км и менее - туман. В сухую погоду видимость может ухудшаться дымом, пылью или мглою.
  • Явления - указаны атмосферные явления, наблюдавшиеся в срок или в последний час перед сроком; фигурными скобками обозначены явления, наблюдавшиеся между сроками (за 1-3 часа до срока); квадратными скобками обозначены град или гололедные отложения с указанием их диаметра в мм.
  • Облачность - указаны через наклонную черту общая и нижняя облачность в баллах и высота нижней границы облаков в метрах; квадратными скобками обозначены формы облаков: Ci - перистые, Cs - перисто-слоистые, Cc - перисто-кучевые, Ac - высококучевые, As - высокослоистые, Sc - слоисто-кучевые, Ns - слоисто-дождевые, Cu - кучевые, Cb - кучево-дождевые. Подробнее классификацию облаков см. в Атласе облаков (PDF).
  • T - Температура воздуха - температура, измеренная на высоте 2 м над землей.
  • Td - Температура точки росы - температура, при понижении до которой содержащийся в воздухе водяной пар достигнет насыщения.
  • f - Относительная влажность воздуха - влажноcть воздуха, измеренная на высоте 2 м над землей.
  • Te - Эффективная температура - температура, которую ощущает одетый по сезону человек в тени. Характеристика душности погоды. При расчете учитывается влияние влажности воздуха и скорости ветра на теплоощущения человека.
  • Tes - Эффективная температура на солнце - температура, которую ощущает человек, с поправкой на солнечный нагрев. Характеристика знойности погоды. Зависит от высоты солнца над горизонтом, облачности и скорости ветра. Ночью, в пасмурную погоду, а также при ветре 12 м/с и более поправка равна нулю.
  • P - Атмосферное давление - приведенное к уровню моря атмосферное давление.
  • Po - Атмосферное давление - измеренное на уровне метеостанции атмосферное давление.
  • Tmin - Минимальная температура - минимум температуры воздуха на высоте 2 м над землей.
  • Tmax - Максимальная температура - максимум температуры воздуха на высоте 2 м над землей.
  • R - Количество осадков - Количество выпавших осадков за период времени, мм. При наведении курсора мыши на число - период времени, за который выпало указанное количество осадков.
  • R24 - Количество осадков - Количество выпавших осадков за 24 часа, мм.
  • S - Снежный покров - Высота снежного покрова, см. При наведении курсора мыши на число - состояние снежного покрова и степень покрытия местности в баллах.